time, Switch, Flow(0), Analog(2)
yyyy/mm/dd HH:MM:SS.fff, True=FILTERED|False=TOTAL, L/min, V
2023/06/14 08:00:02.914, True, 4.307, 0.145800
2023/06/14 08:00:03.419, True, 4.311, 0.145953
2023/06/14 08:00:03.915, True, 4.042, 0.144808
2023/06/14 08:00:04.419, True, 2.321, 0.142977
2023/06/14 08:00:04.923, True, 1.326, 0.143435
2023/06/14 08:00:05.419, True, 1.011, 0.145113
2023/06/14 08:00:05.923, True, 0.663, 0.145037
2023/06/14 08:00:06.427, True, 0.663, 0.142977
2023/06/14 08:00:06.922, True, 0.337, 0.143816
2023/06/14 08:00:07.427, True, 0.663, 0.142748
2023/06/14 08:00:07.930, True, 0.663, 0.144350
2023/06/14 08:00:08.427, True, 0.337, 0.144884
2023/06/14 08:00:08.930, True, 0.663, 0.143893
2023/06/14 08:00:09.435, True, 0.663, 0.144045
2023/06/14 08:00:09.930, True, 0.337, 0.142214
2023/06/14 08:00:10.435, True, 0.663, 0.142214
2023/06/14 08:00:10.939, True, 0.332, 0.142901
2023/06/14 08:00:11.435, True, 0.675, 0.145037
2023/06/14 08:00:11.939, True, 0.331, 0.143969
2023/06/14 08:00:12.435, True, 0.674, 0.143969
2023/06/14 08:00:12.939, True, 0.332, 0.145647
2023/06/14 08:00:13.443, True, 0.663, 0.143511
2023/06/14 08:00:13.947, True, 0.332, 0.143664
2023/06/14 08:00:14.442, True, 0.674, 0.140993
2023/06/14 08:00:14.947, True, 0.663, 0.141985
2023/06/14 08:00:15.450, True, 0.664, 0.142596
2023/06/14 08:00:15.947, True, 0.336, 0.142214
2023/06/14 08:00:16.450, True, 0.664, 0.144350
2023/06/14 08:00:16.955, True, 0.331, 0.142901
2023/06/14 08:00:17.450, True, 0.674, 0.143740
2023/06/14 08:00:17.955, True, 0.332, 0.142824
2023/06/14 08:00:18.459, True, 0.663, 0.145190
2023/06/14 08:00:18.955, True, 0.337, 0.144121
2023/06/14 08:00:19.459, True, 0.663, 0.142596
2023/06/14 08:00:19.963, True, 0.663, 0.144274
2023/06/14 08:00:20.458, True, 0.337, 0.144121
2023/06/14 08:00:20.963, True, 0.663, 0.142977
2023/06/14 08:00:21.459, True, 0.337, 0.142290
2023/06/14 08:00:21.963, True, 0.663, 0.143587
2023/06/14 08:00:22.467, True, 0.332, 0.143893
2023/06/14 08:00:22.970, True, 0.663, 0.142290
2023/06/14 08:00:23.467, True, 0.337, 0.143816
2023/06/14 08:00:23.970, True, 0.663, 0.146105
2023/06/14 08:00:24.475, True, 0.332, 0.144503
2023/06/14 08:00:24.970, True, 0.674, 0.145418
2023/06/14 08:00:25.475, True, 0.332, 0.144198
2023/06/14 08:00:25.979, True, 0.663, 0.144045
2023/06/14 08:00:26.475, True, 0.337, 0.141985
2023/06/14 08:00:26.979, True, 0.663, 0.142061
2023/06/14 08:00:27.475, True, 0.674, 0.141451
2023/06/14 08:00:27.979, True, 0.332, 0.142672
2023/06/14 08:00:28.483, True, 0.664, 0.142824
2023/06/14 08:00:28.978, True, 0.336, 0.143893
2023/06/14 08:00:29.482, True, 0.663, 0.142061
2023/06/14 08:00:29.987, True, 0.332, 0.142672
2023/06/14 08:00:30.483, True, 0.674, 0.143206
2023/06/14 08:00:30.987, True, 0.332, 0.146563
2023/06/14 08:00:31.490, True, 0.663, 0.143587
2023/06/14 08:00:31.986, True, 0.337, 0.144350
2023/06/14 08:00:32.490, True, 0.663, 0.148013
2023/06/14 08:00:32.987, True, 0.337, 0.143587
2023/06/14 08:00:33.491, True, 0.663, 0.144121
2023/06/14 08:00:33.995, True, 0.663, 0.142443
2023/06/14 08:00:34.490, True, 0.337, 0.147326
2023/06/14 08:00:34.995, True, 0.663, 0.144884
2023/06/14 08:00:35.499, True, 0.332, 0.144045
2023/06/14 08:00:35.994, True, 0.675, 0.143893
2023/06/14 08:00:36.499, True, 0.331, 0.144884
2023/06/14 08:00:37.002, True, 0.663, 0.144732
2023/06/14 08:00:37.499, True, 0.337, 0.141985
2023/06/14 08:00:38.002, True, 0.663, 0.141375
2023/06/14 08:00:38.506, True, 0.663, 0.142596
2023/06/14 08:00:39.002, True, 0.337, 0.143130
2023/06/14 08:00:39.506, True, 0.663, 0.142443
2023/06/14 08:00:40.010, True, 0.332, 0.145647
2023/06/14 08:00:40.514, True, 0.664, 0.144121
2023/06/14 08:00:41.010, True, 0.337, 0.142748
2023/06/14 08:00:41.515, True, 0.663, 0.143282
2023/06/14 08:00:42.018, True, 0.332, 0.143816
2023/06/14 08:00:42.514, True, 0.674, 0.143130
2023/06/14 08:00:43.018, True, 0.332, 0.141222
2023/06/14 08:00:43.522, True, 0.663, 0.143511
2023/06/14 08:00:44.019, True, 0.674, 0.143511
2023/06/14 08:00:44.523, True, 0.331, 0.143206
2023/06/14 08:00:45.026, True, 0.663, 0.141604
2023/06/14 08:00:45.523, True, 0.337, 0.142367
2023/06/14 08:00:46.026, True, 0.663, 0.142367
2023/06/14 08:00:46.530, True, 0.332, 0.142061
2023/06/14 08:00:47.026, True, 0.674, 0.144656
2023/06/14 08:00:47.530, True, 0.332, 0.145113
2023/06/14 08:00:48.034, True, 0.663, 0.144121
2023/06/14 08:00:48.530, True, 0.337, 0.144350
2023/06/14 08:00:49.034, True, 0.664, 0.143969
2023/06/14 08:00:49.538, True, 0.331, 0.146563
2023/06/14 08:00:50.042, True, 0.664, 0.143206
2023/06/14 08:00:50.538, True, 0.673, 0.143282
2023/06/14 08:00:51.042, True, 0.332, 0.141985
2023/06/14 08:00:51.538, True, 0.673, 0.145418
2023/06/14 08:00:52.042, True, 0.332, 0.144198
2023/06/14 08:00:52.547, True, 0.663, 0.144503
2023/06/14 08:00:53.042, True, 0.337, 0.143282
2023/06/14 08:00:53.547, True, 0.663, 0.142214
2023/06/14 08:00:54.050, True, 0.332, 0.143130
2023/06/14 08:00:54.547, True, 0.674, 0.143587
2023/06/14 08:00:55.050, True, 0.332, 0.145037
2023/06/14 08:00:55.555, True, 0.663, 0.143969
2023/06/14 08:00:56.051, True, 0.337, 0.143664
2023/06/14 08:00:56.555, True, 0.663, 0.143587
2023/06/14 08:00:57.050, True, 0.674, 0.143359
2023/06/14 08:00:57.554, True, 0.332, 0.141756
2023/06/14 08:00:58.058, True, 0.663, 0.144121
2023/06/14 08:00:58.555, True, 0.337, 0.143053
2023/06/14 08:00:59.058, True, 0.663, 0.147021
2023/06/14 08:00:59.563, True, 0.332, 0.143206
2023/06/14 08:01:00.059, True, 0.674, 0.145953
2023/06/14 08:01:00.562, True, 0.331, 0.143359
2023/06/14 08:01:01.066, True, 0.331, 0.143893
2023/06/14 08:01:01.570, True, 0.664, 0.143587
2023/06/14 08:01:02.066, True, 0.673, 0.142748
2023/06/14 08:01:02.570, True, 0.332, 0.143282
2023/06/14 08:01:03.073, True, 0.664, 0.146715
2023/06/14 08:01:03.570, True, 0.336, 0.143893
2023/06/14 08:01:04.075, True, 0.332, 0.143282
2023/06/14 08:01:04.578, True, 0.663, 0.143816
2023/06/14 08:01:05.074, True, 0.337, 0.144045
2023/06/14 08:01:05.578, True, 0.662, 0.144961
2023/06/14 08:01:06.082, True, 0.332, 0.145571
2023/06/14 08:01:06.578, True, 0.674, 0.146792
2023/06/14 08:01:07.082, True, 0.332, 0.144121
2023/06/14 08:01:07.586, True, 0.331, 0.144045
2023/06/14 08:01:08.082, True, 0.674, 0.141222
2023/06/14 08:01:08.586, True, 0.332, 0.142672
2023/06/14 08:01:09.082, True, 0.674, 0.145037
2023/06/14 08:01:09.586, True, 0.332, 0.142214
2023/06/14 08:01:10.090, True, 0.663, 0.143816
2023/06/14 08:01:10.594, True, 0.332, 0.143740
2023/06/14 08:01:11.090, True, 0.673, 0.141604
2023/06/14 08:01:11.594, True, 0.332, 0.143587
2023/06/14 08:01:12.098, True, 0.663, 0.143816
2023/06/14 08:01:12.594, True, 0.337, 0.142977
2023/06/14 08:01:13.098, True, 0.332, 0.146639
2023/06/14 08:01:13.602, True, 0.664, 0.144656
2023/06/14 08:01:14.098, True, 0.673, 0.144350
2023/06/14 08:01:14.602, True, 0.332, 0.144579
2023/06/14 08:01:15.106, True, 0.331, 0.143893
2023/06/14 08:01:15.602, True, 0.674, 0.145266
2023/06/14 08:01:16.105, True, 0.664, 0.142214
2023/06/14 08:01:16.610, True, 0.332, 0.143359
2023/06/14 08:01:17.114, True, 0.662, 0.143664
2023/06/14 08:01:17.610, True, 0.338, 0.142748
2023/06/14 08:01:18.114, True, 0.663, 0.143206
2023/06/14 08:01:18.618, True, 0.331, 0.143282
2023/06/14 08:01:19.114, True, 0.674, 0.143435
2023/06/14 08:01:19.618, True, 0.332, 0.143511
2023/06/14 08:01:20.122, True, 0.332, 0.144427
2023/06/14 08:01:20.618, True, 0.673, 0.144121
2023/06/14 08:01:21.122, True, 0.332, 0.142290
2023/06/14 08:01:21.626, True, 0.663, 0.145190
2023/06/14 08:01:22.122, True, 0.337, 0.143511
2023/06/14 08:01:22.626, True, 0.332, 0.141604
2023/06/14 08:01:23.130, True, 0.663, 0.144121
2023/06/14 08:01:23.626, True, 0.338, 0.144808
2023/06/14 08:01:24.130, True, 0.662, 0.142061
2023/06/14 08:01:24.634, True, 0.332, 0.143740
2023/06/14 08:01:25.130, True, 0.674, 0.144198
2023/06/14 08:01:25.634, True, 0.332, 0.144503
2023/06/14 08:01:26.138, True, 0.663, 0.144961
2023/06/14 08:01:26.634, True, 0.337, 0.143435
2023/06/14 08:01:27.138, True, 0.664, 0.143359
2023/06/14 08:01:27.642, True, 0.331, 0.142596
2023/06/14 08:01:28.138, True, 0.674, 0.143511
2023/06/14 08:01:28.642, True, 0.332, 0.144884
2023/06/14 08:01:29.147, True, 0.663, 0.142519
2023/06/14 08:01:29.650, True, 0.332, 0.143740
2023/06/14 08:01:30.146, True, 0.337, 0.143359
2023/06/14 08:01:30.650, True, 0.663, 0.144884
2023/06/14 08:01:31.154, True, 0.332, 0.143053
2023/06/14 08:01:31.650, True, 0.673, 0.144350
2023/06/14 08:01:32.154, True, 0.332, 0.144503
2023/06/14 08:01:32.658, True, 0.663, 0.146792
2023/06/14 08:01:33.154, True, 0.337, 0.143282
2023/06/14 08:01:33.658, True, 0.663, 0.141070
2023/06/14 08:01:34.162, True, 0.332, 0.144656
2023/06/14 08:01:34.658, True, 0.674, 0.142290
2023/06/14 08:01:35.162, True, 0.332, 0.142824
2023/06/14 08:01:35.666, True, 0.332, 0.144350
2023/06/14 08:01:36.162, True, 0.674, 0.143206
2023/06/14 08:01:36.666, True, 0.332, 0.145037
2023/06/14 08:01:37.171, True, 0.663, 0.142596
2023/06/14 08:01:37.666, True, 0.337, 0.144808
2023/06/14 08:01:38.170, True, 0.663, 0.143359
2023/06/14 08:01:38.674, True, 0.332, 0.146334
2023/06/14 08:01:39.170, True, 0.675, 0.144808
2023/06/14 08:01:39.674, True, 0.331, 0.144350
2023/06/14 08:01:40.178, True, 0.664, 0.144808
2023/06/14 08:01:40.674, True, 0.337, 0.146487
2023/06/14 08:01:41.178, True, 0.332, 0.144045
2023/06/14 08:01:41.674, True, 0.675, 0.144350
2023/06/14 08:01:42.178, True, 0.331, 0.146639
2023/06/14 08:01:42.682, True, 0.663, 0.145418
2023/06/14 08:01:43.186, True, 0.332, 0.144961
2023/06/14 08:01:43.682, True, 0.674, 0.144579
2023/06/14 08:01:44.186, True, 0.332, 0.146105
2023/06/14 08:01:44.690, True, 0.663, 0.145953
2023/06/14 08:01:45.186, True, 0.337, 0.145113
2023/06/14 08:01:45.690, True, 0.663, 0.145037
2023/06/14 08:01:46.194, True, 0.332, 0.143130
2023/06/14 08:01:46.690, True, 0.337, 0.146487
2023/06/14 08:01:47.194, True, 0.663, 0.147097
2023/06/14 08:01:47.698, True, 0.332, 0.145190
2023/06/14 08:01:48.194, True, 0.337, 0.144274
2023/06/14 08:01:48.698, True, 0.664, 0.146105
2023/06/14 08:01:49.202, True, 0.331, 0.145724
2023/06/14 08:01:49.706, True, 0.664, 0.145037
2023/06/14 08:01:50.203, True, 0.336, 0.145266
2023/06/14 08:01:50.707, True, 0.663, 0.146029
2023/06/14 08:01:51.210, True, 0.332, 0.144884
2023/06/14 08:01:51.706, True, 0.337, 0.146792
2023/06/14 08:01:52.210, True, 0.663, 0.146410
2023/06/14 08:01:52.714, True, 0.332, 0.147555
2023/06/14 08:01:53.210, True, 0.337, 0.147021
2023/06/14 08:01:53.714, True, 0.664, 0.147250
2023/06/14 08:01:54.218, True, 0.331, 0.146181
2023/06/14 08:01:54.714, True, 0.337, 0.147021
2023/06/14 08:01:55.218, True, 0.663, 0.146181
2023/06/14 08:01:55.714, True, 0.337, 0.147021
2023/06/14 08:01:56.218, True, 0.663, 0.148470
2023/06/14 08:01:56.722, True, 0.332, 0.149233
2023/06/14 08:01:57.218, True, 0.674, 0.148775
2023/06/14 08:01:57.722, True, 0.332, 0.147784
2023/06/14 08:01:58.226, True, 0.332, 0.148241
2023/06/14 08:01:58.730, True, 0.663, 0.149004
2023/06/14 08:01:59.226, True, 0.337, 0.147631
2023/06/14 08:01:59.730, True, 0.331, 0.148165
2023/06/14 08:02:00.233, True, 0.663, 0.147478
2023/06/14 08:02:00.730, True, 0.337, 0.147707
2023/06/14 08:02:01.234, True, 0.663, 0.149233
2023/06/14 08:02:01.738, True, 0.332, 0.149004
2023/06/14 08:02:02.234, True, 0.337, 0.147784
2023/06/14 08:02:02.738, True, 0.663, 0.151522
2023/06/14 08:02:03.242, True, 0.332, 0.150912
2023/06/14 08:02:03.746, True, 0.664, 0.150607
2023/06/14 08:02:04.242, True, 0.336, 0.150225
2023/06/14 08:02:04.746, True, 0.332, 0.152132
2023/06/14 08:02:05.242, True, 0.674, 0.150378
2023/06/14 08:02:05.746, True, 0.332, 0.149462
2023/06/14 08:02:06.250, True, 0.662, 0.149920
2023/06/14 08:02:06.754, True, 0.332, 0.153735
2023/06/14 08:02:07.250, True, 0.337, 0.153506
2023/06/14 08:02:07.753, True, 0.664, 0.152285
2023/06/14 08:02:08.250, True, 0.337, 0.153429
2023/06/14 08:02:08.754, True, 0.663, 0.150988
2023/06/14 08:02:09.258, True, 0.332, 0.152438
2023/06/14 08:02:09.753, True, 0.337, 0.152438
2023/06/14 08:02:10.258, True, 0.663, 0.150454
2023/06/14 08:02:10.762, True, 0.332, 0.152438
2023/06/14 08:02:11.258, True, 0.674, 0.151827
2023/06/14 08:02:11.762, True, 0.332, 0.154879
2023/06/14 08:02:12.266, True, 0.663, 0.152514
2023/06/14 08:02:12.762, True, 0.337, 0.154955
2023/06/14 08:02:13.266, True, 0.331, 0.152209
2023/06/14 08:02:13.770, True, 0.663, 0.152285
2023/06/14 08:02:14.274, True, 0.332, 0.154726
2023/06/14 08:02:14.770, True, 0.337, 0.153201
2023/06/14 08:02:15.274, True, 0.663, 0.155566
2023/06/14 08:02:15.770, True, 0.337, 0.152285
2023/06/14 08:02:16.274, True, 0.663, 0.153811
2023/06/14 08:02:16.778, True, 0.332, 0.154421
2023/06/14 08:02:17.274, True, 0.337, 0.151217
2023/06/14 08:02:17.778, True, 0.663, 0.154879
2023/06/14 08:02:18.282, True, 0.332, 0.154345
2023/06/14 08:02:18.778, True, 0.674, 0.152972
2023/06/14 08:02:19.282, True, 0.331, 0.151217
2023/06/14 08:02:19.786, True, 0.663, 0.151827
2023/06/14 08:02:20.282, True, 0.337, 0.151827
2023/06/14 08:02:20.786, True, 0.332, 0.152895
2023/06/14 08:02:21.290, True, 0.663, 0.154192
2023/06/14 08:02:21.786, True, 0.337, 0.153429
2023/06/14 08:02:22.290, True, 0.663, 0.154879
2023/06/14 08:02:22.794, True, 0.332, 0.154421
2023/06/14 08:02:23.290, True, 0.673, 0.154345
2023/06/14 08:02:23.794, True, 0.332, 0.152209
2023/06/14 08:02:24.298, True, 0.332, 0.152743
2023/06/14 08:02:24.794, True, 0.675, 0.152361
2023/06/14 08:02:25.298, True, 0.331, 0.153429
2023/06/14 08:02:25.802, True, 0.663, 0.152819
2023/06/14 08:02:26.306, True, 0.332, 0.152132
2023/06/14 08:02:26.802, True, 0.674, 0.154345
2023/06/14 08:02:27.306, True, 0.332, 0.153887
2023/06/14 08:02:27.810, True, 0.332, 0.153811
2023/06/14 08:02:28.306, True, 0.674, 0.153887
2023/06/14 08:02:28.810, True, 0.332, 0.150912
2023/06/14 08:02:29.314, True, 0.664, 0.153811
2023/06/14 08:02:29.810, True, 0.337, 0.152895
2023/06/14 08:02:30.314, True, 0.664, 0.154574
2023/06/14 08:02:30.818, True, 0.331, 0.153201
2023/06/14 08:02:31.314, True, 0.674, 0.153735
2023/06/14 08:02:31.818, True, 0.332, 0.155795
2023/06/14 08:02:32.313, True, 0.338, 0.157626
2023/06/14 08:02:32.818, True, 0.662, 0.154879
2023/06/14 08:02:33.322, True, 0.332, 0.153353
2023/06/14 08:02:33.826, True, 0.331, 0.154574
2023/06/14 08:02:34.322, True, 0.674, 0.152590
2023/06/14 08:02:34.826, True, 0.332, 0.154498
2023/06/14 08:02:35.329, True, 0.332, 0.154803
2023/06/14 08:02:35.826, True, 0.674, 0.155108
2023/06/14 08:02:36.330, True, 0.332, 0.153429
2023/06/14 08:02:36.833, True, 0.663, 0.153658
2023/06/14 08:02:37.337, True, 0.332, 0.153811
2023/06/14 08:02:37.834, True, 0.337, 0.153429
2023/06/14 08:02:38.338, True, 0.663, 0.157015
2023/06/14 08:02:38.841, True, 0.332, 0.153277
2023/06/14 08:02:39.346, True, 0.663, 0.153964
2023/06/14 08:02:39.842, True, 0.337, 0.155337
2023/06/14 08:02:40.345, True, 0.331, 0.156023
2023/06/14 08:02:40.842, True, 0.674, 0.154040
2023/06/14 08:02:41.346, True, 0.332, 0.154574
2023/06/14 08:02:41.850, True, 0.332, 0.155642
2023/06/14 08:02:42.346, True, 0.673, 0.153124
2023/06/14 08:02:42.850, True, 0.332, 0.152514
2023/06/14 08:02:43.354, True, 0.663, 0.153658
2023/06/14 08:02:43.850, True, 0.337, 0.154803
2023/06/14 08:02:44.354, True, 0.332, 0.153582
2023/06/14 08:02:44.858, True, 0.662, 0.155261
2023/06/14 08:02:45.354, True, 0.337, 0.153277
2023/06/14 08:02:45.858, True, 0.663, 0.153353
2023/06/14 08:02:46.362, True, 0.332, 0.153582
2023/06/14 08:02:46.858, True, 0.337, 0.154955
2023/06/14 08:02:47.362, True, 0.663, 0.155642
2023/06/14 08:02:47.866, True, 0.332, 0.153429
2023/06/14 08:02:48.362, True, 0.337, 0.154650
2023/06/14 08:02:48.866, True, 0.663, 0.154269
2023/06/14 08:02:49.370, True, 0.331, 0.155184
2023/06/14 08:02:49.866, True, 0.674, 0.154879
2023/06/14 08:02:50.370, True, 0.332, 0.155489
2023/06/14 08:02:50.874, True, 0.332, 0.157168
2023/06/14 08:02:51.370, True, 0.673, 0.154345
2023/06/14 08:02:51.874, True, 0.332, 0.153811
2023/06/14 08:02:52.378, True, 0.332, 0.154345
2023/06/14 08:02:52.874, True, 0.674, 0.153429
2023/06/14 08:02:53.378, True, 0.332, 0.154269
2023/06/14 08:02:53.882, True, 0.662, 0.152895
2023/06/14 08:02:54.378, True, 0.337, 0.154574
2023/06/14 08:02:54.882, True, 0.663, 0.153353
2023/06/14 08:02:55.386, True, 0.332, 0.153887
2023/06/14 08:02:55.881, True, 0.337, 0.155184
2023/06/14 08:02:56.386, True, 0.332, 0.154421
2023/06/14 08:02:56.890, True, 0.662, 0.153353
2023/06/14 08:02:57.386, True, 0.337, 0.155718
2023/06/14 08:02:57.890, True, 0.332, 0.154192
2023/06/14 08:02:58.394, True, 0.663, 0.155184
2023/06/14 08:02:58.890, True, 0.337, 0.153201
2023/06/14 08:02:59.394, True, 0.663, 0.156939
2023/06/14 08:02:59.898, True, 0.332, 0.152895
2023/06/14 08:03:00.394, True, 0.674, 0.153887
2023/06/14 08:03:00.898, True, 0.332, 0.155489
2023/06/14 08:03:01.402, True, 0.332, 0.154421
2023/06/14 08:03:01.898, True, 0.674, 0.155871
2023/06/14 08:03:02.401, True, 0.332, 0.155261
2023/06/14 08:03:02.906, True, 0.664, 0.153582
2023/06/14 08:03:03.402, True, 0.336, 0.155642
2023/06/14 08:03:03.906, True, 0.332, 0.152667
2023/06/14 08:03:04.410, True, 0.663, 0.154803
2023/06/14 08:03:04.906, True, 0.337, 0.152743
2023/06/14 08:03:05.410, True, 0.332, 0.154726
2023/06/14 08:03:05.914, True, 0.664, 0.153964
2023/06/14 08:03:06.410, True, 0.337, 0.154116
2023/06/14 08:03:06.914, True, 0.663, 0.154803
2023/06/14 08:03:07.418, True, 0.332, 0.155642
2023/06/14 08:03:07.914, True, 0.337, 0.153429
2023/06/14 08:03:08.418, True, 0.663, 0.154726
2023/06/14 08:03:08.914, True, 0.337, 0.153277
2023/06/14 08:03:09.418, True, 0.663, 0.154040
2023/06/14 08:03:09.922, True, 0.332, 0.152285
2023/06/14 08:03:10.418, True, 0.337, 0.157092
2023/06/14 08:03:10.922, True, 0.663, 0.154040
2023/06/14 08:03:11.426, True, 0.332, 0.156634
2023/06/14 08:03:11.922, True, 0.674, 0.154040
2023/06/14 08:03:12.426, True, 0.331, 0.154650
2023/06/14 08:03:12.922, True, 0.337, 0.152209
2023/06/14 08:03:13.426, True, 0.663, 0.153964
2023/06/14 08:03:13.930, True, 0.332, 0.154955
2023/06/14 08:03:14.426, True, 0.675, 0.155337
2023/06/14 08:03:14.930, True, 0.331, 0.153582
2023/06/14 08:03:15.434, True, 0.332, 0.154879
2023/06/14 08:03:15.930, True, 0.674, 0.154955
2023/06/14 08:03:16.434, True, 0.332, 0.155108
2023/06/14 08:03:16.938, True, 0.332, 0.156863
2023/06/14 08:03:17.434, True, 0.674, 0.154803
2023/06/14 08:03:17.938, True, 0.332, 0.154192
2023/06/14 08:03:18.442, True, 0.663, 0.154345
2023/06/14 08:03:18.938, True, 0.337, 0.156405
2023/06/14 08:03:19.442, True, 0.331, 0.154498
2023/06/14 08:03:19.946, True, 0.663, 0.154040
2023/06/14 08:03:20.442, True, 0.337, 0.155413
2023/06/14 08:03:20.946, True, 0.663, 0.156023
2023/06/14 08:03:21.450, True, 0.332, 0.153735
2023/06/14 08:03:21.954, True, 0.332, 0.153658
2023/06/14 08:03:22.450, True, 0.337, 0.156786
2023/06/14 08:03:22.954, True, 0.664, 0.154879
2023/06/14 08:03:23.458, True, 0.332, 0.153735
2023/06/14 08:03:23.962, True, 0.664, 0.154345
2023/06/14 08:03:24.458, True, 0.336, 0.156252
2023/06/14 08:03:24.962, True, 0.663, 0.154726
2023/06/14 08:03:25.458, True, 0.337, 0.153964
2023/06/14 08:03:25.962, True, 0.332, 0.152972
2023/06/14 08:03:26.466, True, 0.663, 0.152438
2023/06/14 08:03:26.962, True, 0.337, 0.155032
2023/06/14 08:03:27.466, True, 0.332, 0.156023
2023/06/14 08:03:27.969, True, 0.665, 0.155642
2023/06/14 08:03:28.466, True, 0.336, 0.155413
2023/06/14 08:03:28.970, True, 0.332, 0.153201
2023/06/14 08:03:29.474, True, 0.664, 0.154574
2023/06/14 08:03:29.970, True, 0.336, 0.152438
2023/06/14 08:03:30.474, True, 0.332, 0.154574
2023/06/14 08:03:30.978, True, 0.664, 0.156100
2023/06/14 08:03:31.474, True, 0.337, 0.154116
2023/06/14 08:03:31.978, True, 0.662, 0.155489
2023/06/14 08:03:32.482, True, 0.332, 0.154116
2023/06/14 08:03:32.978, True, 0.337, 0.152743
2023/06/14 08:03:33.482, True, 0.663, 0.153277
2023/06/14 08:03:33.986, True, 0.332, 0.154269
2023/06/14 08:03:34.482, True, 0.337, 0.154726
2023/06/14 08:03:34.986, True, 0.663, 0.154116
2023/06/14 08:03:35.490, True, 0.332, 0.155489
2023/06/14 08:03:35.986, True, 0.337, 0.154650
2023/06/14 08:03:36.490, True, 0.663, 0.156405
2023/06/14 08:03:36.986, True, 0.337, 0.153735
2023/06/14 08:03:37.490, True, 0.664, 0.154650
2023/06/14 08:03:37.994, True, 0.331, 0.154726
2023/06/14 08:03:38.498, True, 0.332, 0.153811
2023/06/14 08:03:38.994, True, 0.674, 0.153277
2023/06/14 08:03:39.498, True, 0.332, 0.153811
2023/06/14 08:03:40.002, True, 0.331, 0.153811
2023/06/14 08:03:40.498, True, 0.674, 0.154345
2023/06/14 08:03:41.002, True, 0.332, 0.155337
2023/06/14 08:03:41.506, True, 0.332, 0.155718
2023/06/14 08:03:42.002, True, 0.674, 0.153964
2023/06/14 08:03:42.506, True, 0.332, 0.154269
2023/06/14 08:03:43.002, True, 0.674, 0.154574
2023/06/14 08:03:43.506, True, 0.332, 0.155032
2023/06/14 08:03:44.010, True, 0.332, 0.154116
2023/06/14 08:03:44.506, True, 0.674, 0.155795
2023/06/14 08:03:45.010, True, 0.332, 0.153964
2023/06/14 08:03:45.514, True, 0.332, 0.153506
2023/06/14 08:03:46.010, True, 0.674, 0.155184
2023/06/14 08:03:46.514, True, 0.332, 0.153506
2023/06/14 08:03:47.017, True, 0.332, 0.155184
2023/06/14 08:03:47.514, True, 0.673, 0.155261
2023/06/14 08:03:48.018, True, 0.332, 0.155032
2023/06/14 08:03:48.522, True, 0.332, 0.153735
2023/06/14 08:03:49.018, True, 0.674, 0.153964
2023/06/14 08:03:49.522, True, 0.332, 0.155032
2023/06/14 08:03:50.026, True, 0.663, 0.153964
2023/06/14 08:03:50.522, True, 0.337, 0.156405
2023/06/14 08:03:51.026, True, 0.332, 0.154040
2023/06/14 08:03:51.530, True, 0.663, 0.154726
2023/06/14 08:03:52.026, True, 0.337, 0.152819
2023/06/14 08:03:52.530, True, 0.332, 0.154803
2023/06/14 08:03:53.034, True, 0.663, 0.156023
2023/06/14 08:03:53.530, True, 0.337, 0.155032
2023/06/14 08:03:54.034, True, 0.332, 0.155261
2023/06/14 08:03:54.538, True, 0.663, 0.156023
2023/06/14 08:03:55.034, True, 0.337, 0.154269
2023/06/14 08:03:55.538, True, 0.332, 0.154879
2023/06/14 08:03:56.034, True, 0.674, 0.154650
2023/06/14 08:03:56.538, True, 0.331, 0.155642
2023/06/14 08:03:57.042, True, 0.663, 0.153429
2023/06/14 08:03:57.538, True, 0.337, 0.153506
2023/06/14 08:03:58.042, True, 0.332, 0.152895
2023/06/14 08:03:58.546, True, 0.663, 0.153658
2023/06/14 08:03:59.050, True, 0.332, 0.153887
2023/06/14 08:03:59.546, True, 0.674, 0.155718
2023/06/14 08:04:00.050, True, 0.332, 0.154803
2023/06/14 08:04:00.554, True, 0.662, 0.154803
2023/06/14 08:04:01.050, True, 0.338, 0.153582
2023/06/14 08:04:01.554, True, 0.331, 0.154192
2023/06/14 08:04:02.058, True, 0.663, 0.157015
2023/06/14 08:04:02.553, True, 0.337, 0.155947
2023/06/14 08:04:03.058, True, 0.664, 0.151904
2023/06/14 08:04:03.554, True, 0.336, 0.155184
2023/06/14 08:04:04.058, True, 0.332, 0.152972
2023/06/14 08:04:04.562, True, 0.332, 0.154269
2023/06/14 08:04:05.058, True, 0.673, 0.155566
2023/06/14 08:04:05.562, True, 0.331, 0.154498
2023/06/14 08:04:06.066, True, 0.332, 0.154803
2023/06/14 08:04:06.562, True, 0.674, 0.152132
2023/06/14 08:04:07.066, True, 0.332, 0.156023
2023/06/14 08:04:07.570, True, 0.332, 0.154421
2023/06/14 08:04:08.066, True, 0.674, 0.151827
2023/06/14 08:04:08.570, True, 0.332, 0.154803
2023/06/14 08:04:09.066, True, 0.337, 0.155413
2023/06/14 08:04:09.569, True, 0.331, 0.156252
2023/06/14 08:04:10.074, True, 0.663, 0.154421
2023/06/14 08:04:10.570, True, 0.337, 0.153353
2023/06/14 08:04:11.074, True, 0.331, 0.153887
2023/06/14 08:04:11.578, True, 0.664, 0.153506
2023/06/14 08:04:12.074, True, 0.337, 0.155108